Location: ??
(34.9170°N, 135.5016°E)
Time: 15:34:41
(UTC+00:00)

A-11 Canister half - All Passes

Search period start: 26 February 2021 00:00
Search period end: 08 March 2021 00:00
Orbit: 1524 x 1684 km, 47.3° (Epoch: 25 February)

Date Brightness Start Highest point End Pass type
(mag) Time Alt. Az. Time Alt. Az. Time Alt. Az.
26 Feb - 00:59:38 10° NW 01:08:31 46° NNE 01:17:22 10° E daylight
26 Feb - 03:04:51 10° NW 03:14:10 82° SW 03:23:34 10° SE daylight
26 Feb - 05:11:30 10° W 05:18:10 22° SW 05:24:55 10° S daylight
26 Feb - 18:20:31 10° SSW 18:29:07 37° SE 18:37:29 10° ENE visible
26 Feb - 20:23:59 10° WSW 20:33:40 76° NNW 20:43:04 10° NE visible
26 Feb - 22:31:05 10° WNW 22:39:52 41° N 22:48:31 10° ENE daylight
27 Feb - 00:37:56 10° NW 00:46:48 45° NNE 00:55:37 10° E daylight
27 Feb - 02:43:12 10° NW 02:52:31 85° SW 03:01:55 10° SE daylight
27 Feb - 04:49:39 10° WNW 04:56:34 24° SW 05:03:36 10° S daylight
27 Feb - 17:59:02 10° S 18:07:30 34° SE 18:15:45 10° ENE visible
27 Feb - 20:02:16 10° WSW 20:11:59 79° NNW 20:21:25 10° NE visible
27 Feb - 22:09:17 10° W 22:18:08 41° N 22:26:49 10° ENE daylight
28 Feb - 00:16:14 10° NW 00:25:05 44° NNE 00:33:51 10° E daylight
28 Feb - 02:21:32 10° NW 02:30:53 88° SSW 02:40:16 10° SE daylight
28 Feb - 04:27:49 10° WNW 04:34:59 26° SW 04:42:15 10° S daylight
28 Feb - 17:37:34 10° S 17:45:54 32° SE 17:53:59 10° ENE visible
28 Feb - 19:40:34 10° WSW 19:50:19 82° NW 19:59:46 10° NE visible
28 Feb - 21:47:29 10° W 21:56:23 42° NNW 22:05:07 10° ENE daylight
28 Feb - 23:54:31 10° WNW 00:03:21 43° NNE 00:12:05 10° E daylight
01 Mar - 01:59:53 10° NW 02:09:14 88° NE 02:18:37 10° SE daylight
01 Mar - 04:06:01 10° WNW 04:13:24 27° SW 04:20:53 10° S daylight
01 Mar - 17:16:08 10° S 17:24:17 31° SE 17:32:12 10° ENE visible
01 Mar - 19:18:51 10° SW 19:28:39 85° NW 19:38:08 10° NE visible
01 Mar - 21:25:42 10° W 21:34:39 43° NNW 21:43:25 10° ENE daylight
01 Mar - 23:32:48 10° WNW 23:41:37 42° NNE 23:50:19 10° E daylight
02 Mar - 01:38:13 10° NW 01:47:35 85° NE 01:56:56 10° SE daylight
02 Mar - 03:44:13 10° WNW 03:51:48 29° SW 03:59:29 10° S daylight
02 Mar - 16:54:42 10° S 17:02:40 29° SE 17:10:26 10° ENE visible
02 Mar - 18:57:09 10° SW 19:06:58 88° NW 19:16:29 10° NE visible
02 Mar - 21:03:53 10° W 21:12:55 43° NNW 21:21:44 10° NE daylight
02 Mar - 23:11:05 10° WNW 23:19:53 42° NNE 23:28:33 10° E daylight
03 Mar - 01:16:33 10° NW 01:25:55 82° NNE 01:35:16 10° ESE daylight
03 Mar - 03:22:26 10° WNW 03:30:13 31° SW 03:38:05 10° S daylight
03 Mar - 16:33:17 10° S 16:41:04 27° SE 16:48:37 10° ENE visible
03 Mar - 18:35:28 10° SW 18:45:18 89° SE 18:54:50 10° NE visible
03 Mar - 20:42:05 10° W 20:51:11 44° NNW 21:00:03 10° NE visible
03 Mar - 22:49:21 10° WNW 22:58:09 41° N 23:06:48 10° E daylight
04 Mar - 00:54:53 10° NW 01:04:16 79° NNE 01:13:36 10° ESE daylight
04 Mar - 03:00:40 10° WNW 03:08:37 33° SW 03:16:39 10° S daylight
04 Mar - 16:11:54 10° S 16:19:27 25° SE 16:26:48 10° ENE visible
04 Mar - 18:13:47 10° SW 18:23:38 85° SE 18:33:11 10° NE visible
04 Mar - 20:20:17 10° W 20:29:26 45° NNW 20:38:21 10° NE visible
04 Mar - 22:27:37 10° WNW 22:36:25 41° N 22:45:03 10° ENE daylight
05 Mar - 00:33:13 10° NW 00:42:36 76° NNE 00:51:54 10° ESE daylight
05 Mar - 02:38:54 10° WNW 02:47:01 35° SW 02:55:12 10° SSE daylight
05 Mar - 15:50:33 10° S 15:57:51 24° SE 16:04:58 10° ENE visible
05 Mar - 17:52:06 10° SW 18:01:58 82° SE 18:11:31 10° NE visible
05 Mar - 19:58:30 10° W 20:07:43 46° NNW 20:16:41 10° NE visible
05 Mar - 22:05:53 10° WNW 22:14:40 40° N 22:23:17 10° ENE daylight
06 Mar - 00:11:33 10° NW 00:20:57 73° NNE 00:30:13 10° ESE daylight
06 Mar - 02:17:10 10° WNW 02:25:26 38° SW 02:33:44 10° SSE daylight
06 Mar - 15:29:13 10° S 15:36:14 22° SE 15:43:05 10° E visible
06 Mar - 17:30:26 10° SW 17:40:18 79° SE 17:49:52 10° ENE visible
06 Mar - 19:36:42 10° W 19:45:59 48° NNW 19:55:01 10° NE visible
06 Mar - 21:44:07 10° WNW 21:52:55 40° N 22:01:32 10° ENE daylight
06 Mar - 23:49:53 10° NW 23:59:16 70° NNE 00:08:32 10° ESE daylight
07 Mar - 01:55:25 10° WNW 02:03:50 40° SW 02:12:16 10° SSE daylight
07 Mar - 15:07:56 10° SSE 15:14:38 21° SE 15:21:11 10° E visible
07 Mar - 17:08:47 10° SW 17:18:38 75° SE 17:28:12 10° ENE visible
07 Mar - 19:14:53 10° W 19:24:14 49° NNW 19:33:21 10° NE visible
07 Mar - 21:22:22 10° WNW 21:31:10 39° N 21:39:47 10° ENE daylight
07 Mar - 23:28:12 10° NW 23:37:35 68° NNE 23:46:49 10° ESE daylight
